Flag for U.S.A. Weather past 2 weeks in Alpena, Michigan, U.S.A.

Now
17 °F

Overcast.


Feels Like: 6 °F
Forecast: 4 / 20 °F
Wind: 9 mph from Northwest

Location: Alpena County Regional Airport

Current Time: Mar 4, 2015 at 6:11:11 PM

Latest Report: Mar 4, 2015 at 4:54 PM


Visibility: 10 mi

Pressure: 30.00 "Hg

Humidity: 49%

Dew point: 1 °F

Location of AlpenaLocation

Historic Weather in Alpena — Graph

°F

Alpena temperature yesterday

Maximum temperature yesterday: 28 °F (at 9:54 PM)
Minimum temperature yesterday: -4 °F (at 2:54 AM)
Average temperature yesterday: 17 °F

Past Weeks' High & Low Weather Summary

 TemperatureHumidityPressure
High28 °F (Feb 24, 2:04 PM)92% (Mar 3, 5:54 PM)30.70 "Hg (Mar 3, 5:54 PM)
Low-28 °F (Feb 20, 6:54 AM)31% (Feb 25, 2:54 PM)29.42 "Hg (Feb 24, 2:04 PM)
Average9 °F65%30.16 "Hg
* Reported Feb 17 4:54 PM — Mar 4 4:54 PM, Alpena, Weather by CustomWeather, © 2015

Note: Actual official high and low records may vary slightly from our data, if they occured in-between our weather recording intervals... More about our weather records

Advertising

Alpena weather history for previous 24 hours

 ConditionsComfort  
Time TempWeatherWind HumidityBarometerVisibility
4:54 PM
Wed, Mar 4
17 °FOvercast.9 mph49%30.00 "Hg10 mi
3:54 PM19 °FOvercast.14 mph52%29.98 "Hg10 mi
2:54 PM20 °FPartly sunny.14 mph45%29.96 "Hg10 mi
1:54 PM21 °FMostly cloudy.10 mph57%29.96 "Hg10 mi
12:54 PM21 °FOvercast.9 mph60%29.95 "Hg10 mi
11:54 AM19 °FLight snow. Mostly cloudy.9 mph65%29.93 "Hg4 mi
10:54 AM18 °FLight snow. More clouds than sun.12 mph62%29.94 "Hg9 mi
9:54 AM17 °FLight snow. More clouds than sun.13 mph64%29.94 "Hg10 mi
8:54 AM17 °FOvercast.8 mph68%29.92 "Hg10 mi
7:54 AM17 °FOvercast.8 mph74%29.89 "Hg10 mi
6:54 AM18 °FOvercast.10 mph71%29.86 "Hg10 mi
5:54 AM19 °FOvercast.6 mph68%29.83 "Hg10 mi
4:54 AM20 °FOvercast.5 mph71%29.80 "Hg10 mi
3:54 AM22 °FMostly cloudy.9 mph78%29.76 "Hg8 mi
2:54 AM26 °FLight snow. Overcast.5 mph81%29.73 "Hg3 mi
1:54 AM25 °FMostly cloudy.7 mph81%29.72 "Hg9 mi
12:54 AM24 °FPassing clouds.6 mph81%29.68 "Hg10 mi
11:54 PM
Tue, Mar 3
25 °FPassing clouds.8 mph78%29.67 "Hg10 mi
10:54 PM26 °FPassing clouds.8 mph77%29.66 "Hg10 mi
9:54 PM28 °FOvercast.15 mph78%29.62 "Hg10 mi
8:54 PM26 °FMostly cloudy.6 mph88%29.58 "Hg10 mi
7:54 PM25 °FOvercast.5 mph88%29.56 "Hg10 mi
6:54 PM25 °FLow clouds.3 mph88%29.54 "Hg8 mi
Weather by CustomWeather, © 2015

See weather overviewHow to use our weather pages